Regional Weather Roundup
Issued by NWS State College, PA

Home | Current Version | Previous Version | Text Only | Print | Product List | Glossary Off
Versions: 1 2 3 4 5 6 7 8 9 10 11 12 13 14 15 16 17 18 19 20 21 22 23 24 25 26 27 28 29 30 31 32 33 34 35 36 37 38 39 40 41 42 43 44 45 46 47 48 49 50

000
ASUS41 KCTP 050810
RWRCTP

REGIONAL WEATHER ROUNDUP
NATIONAL WEATHER SERVICE STATE COLLEGE PA
300 AM EST THU MAR 05 2015

Note: "fair" indicates few or no clouds below 12,000 feet with no
significant weather and/or obstructions to visibility.

* = STATION THAT DOES NOT REPORT PRECIPITATION /E.G. RAIN...SNOW...ETC/
    THUNDER OR FOG.

PAZ002>004-007>009-013>016-020>023-029>032-050900-
WESTERN PENNSYLVANIA

CITY           SKY/WX    TMP DP  RH WIND       PRES   REMARKS
ERIE           CLOUDY    16   5  62 N13       30.23R WCI   2
MEADVILLE      LGT SNOW  15   7  70 N14G23    30.14R WCI   0
FRANKLIN*      CLOUDY    18   3  53 NW12G20   30.13R WCI   5
NEW CASTLE     FAIR      19   9  65 NW14G21   30.17R WCI   6
BEAVER COUNTY  NOT AVBL
BUTLER*        CLOUDY    23  12  63 N7G17     30.12R WCI  15
PITTSBURGH INT FLURRIES  23  14  68 N18G28    30.11R WCI   9
PITTSBURGH     LGT SNOW  24  19  81 NW10G17   30.08S WCI  14
INDIANA*       MOCLDY    27  23  86 NW9G15    30.10R FOG
LATROBE        LGT SNOW  25  25 100 W6        30.11R
WASHINGTON CO* CLOUDY    25  21  86 NW3       30.13R
$$

PAZ004>006-010>012-017>019-024>028-033>037-041-042-045-046-049>053-050900-
CENTRAL PENNSYLVANIA

CITY           SKY/WX    TMP DP  RH WIND       PRES   REMARKS
BRADFORD       LGT SNOW  18  12  77 NW15      30.01R WCI   4
DUBOIS         CLOUDY    23  14  68 NW16G28   30.01R WCI  10
CLEARFIELD     CLOUDY    27  17  66 NW12G23   30.02R
JOHNSTOWN      LGT SNOW  23  20  88 NW14G24   29.97R FOG     WCI  11
ALTOONA        CLOUDY    29  22  75 NW16      30.00R
STATE COLLEGE  CLOUDY    30  22  70 NW9G16    29.99S
WILLIAMSPORT   CLOUDY    35  20  54 W9        29.97F
SELINSGROVE    CLOUDY    36  25  64 NW12      29.99F
FT INDIANTOWN  CLOUDY    35  29  79 W9        29.97R
CAPITAL CITY   CLOUDY    34  31  88 W8        30.01R
HARRISBURG     FLURRIES  34  31  88 NW7       30.00R
YORK           LGT SNOW  33  32  96 NW5       30.00R FOG
$$

PAZ038>040-043-044-047-048-054-055-060>062-067>071-050900-
EASTERN PENNSYLVANIA

CITY           SKY/WX    TMP DP  RH WIND       PRES   REMARKS
SCRANTON       CLOUDY    33  25  72 NW6       29.92F
MOUNT POCONO   MIX PCPN  29  23  78 NW13G23   29.85F
ALLENTOWN      LGT SNOW  34  30  86 NW5       29.94F FOG
QUAKERTOWN*    CLOUDY    32  32 100 NW5       29.93F
READING        LGT SNOW  33  31  92 NW3       29.94F FOG
LANCASTER      LGT SNOW  33  32  96 NW9       29.97R FOG
COATESVILLE    LGT RAIN  36  36 100 NW10      29.94F
POTTSTOWN      FLURRIES  33  33 100 NW6       29.95F
BLUE BELL      CLOUDY    37  36  93 CALM      29.92F
DOYLESTOWN     FLURRIES  33  33 100 NW7       29.91F
WILLOW GROVE   NOT AVBL
NORTH PHILA    LGT RAIN  39  32  76 W5        29.95S
PHILADELPHIA   LGT RAIN  38  35  89 NW8       29.95F
$$


USA.gov is the U.S. government's official web portal to all federal, state and local government web resources and services.